Regional Weather Roundup
Issued by NWS

Home | Current Version | Previous Version | Text Only | Print | Product List | Glossary Off
Versions: 1 2 3 4 5 6 7 8 9 10 11 12 13 14 15 16 17 18 19 20 21 22 23 24 25 26 27 28 29 30 31 32 33 34 35 36 37 38 39 40 41 42 43 44 45 46 47 48 49 50

000
ASUS43 KDTX 300810
RWRMI
MICHIGAN HOURLY REGIONAL WEATHER ROUNDUP
NATIONAL WEATHER SERVICE DETROIT/PONTIAC MI
400 AM EDT THU MAR 30 2017

NOTE: "FAIR" INDICATES FEW OR NO CLOUDS BELOW 12,000 FEET WITH NO
SIGNIFICANT WEATHER AND/OR OBSTRUCTION TO VISIBILITY.

MIZ047>049-052>055-059>063-066>070-074>076-081>083-300900-
SOUTHEAST LOWER MICHIGAN

CITY           SKY/WX    TMP DP  RH WIND       PRES   REMARKS
ADRIAN         CLOUDY    41  33  73 E15       30.08F
ALMA           CLOUDY    36  32  85 E8        30.14F WCI  29
ANN ARBOR      CLOUDY    40  32  73 NE12      30.11F WCI  33
BAD AXE        CLOUDY    37  31  78 E7        30.17F WCI  32
CARO           CLOUDY    37  30  77 NE6       30.14F WCI  32
DETROIT CITY   CLOUDY    40  34  79 E12       30.15F WCI  33
DETROIT        CLOUDY    42  33  70 E10       30.13F
FLINT          CLOUDY    37  30  75 E7        30.13F WCI  32
GROSSE ILE     CLOUDY    40  35  81 E12       30.11F WCI  33
HILLSDALE      CLOUDY    41  32  70 E23G29    30.05S
HOWELL         CLOUDY    38  31  76 E8        30.10F WCI  32

CITY           SKY/WX    TMP DP  RH WIND       PRES   REMARKS
JACKSON        CLOUDY    40  32  73 E16       30.07F WCI  31
LAMBERTVILLE   CLOUDY    42  35  75 E9G23     30.10F
LANSING        CLOUDY    37  30  75 E13       30.10F WCI  29
LAPEER         CLOUDY    38  32  79 SE8       30.15F WCI  32
MASON          LGT RAIN  37  33  85 E8        30.09F WCI  31
MONROE         CLOUDY    41  35  79 E9        30.11F
MT. CLEMENS    CLOUDY    40  36  85 E5        30.14F
PONTIAC        LGT RAIN  40  31  70 E10       30.11F WCI  33
PORT HOPE        N/A     36  31  82 E17       30.18F WCI  26
PORT HURON     CLOUDY    39  32  75 E9        30.16F WCI  33
TRI CITIES     CLOUDY    37  30  75 NE10      30.16F WCI  30
MIDLAND        CLOUDY    37  29  74 NE8       30.16F WCI  30
TROY           LGT RAIN  40  31  70 NE12      30.15F WCI  34
SAGINAW HB     CLOUDY    36  30  80 NE7       30.14F WCI  30
$$
MIZ043>046-050>051-056>058-064>065-071>073-077>080-300900-
SOUTHWEST LOWER MICHIGAN

CITY           SKY/WX    TMP DP  RH WIND       PRES   REMARKS
BATTLE CREEK   CLOUDY    40  35  83 E10       30.04F WCI  33
BENTON HARBOR  RAIN      43  36  76 E7G21     30.00R
BIG RAPIDS     CLOUDY    35  24  63 E8        30.11F WCI  29
COLDWATER      CLOUDY    43  30  60 E17       30.01F
FREMONT        CLOUDY    37  25  62 E14       30.06F WCI  28
HOLLAND        CLOUDY    39  34  82 E15       30.02F WCI  31
GRAND RAPIDS   CLOUDY    37  34  89 E14       30.05F WCI  28
IONIA          CLOUDY    35  30  81 NE12G17   30.08F WCI  27
KALAMAZOO      CLOUDY    42  33  70 E12G23    30.02F
LUDINGTON      CLOUDY    37  25  61 E12G22    30.09F WCI  29
MARSHALL       CLOUDY    40  34  79 E9        30.05F WCI  35
MOUNT PLEASANT CLOUDY    36  28  72 E10       30.12F WCI  28
MUSKEGON       LGT RAIN  37  29  72 E15       30.06F WCI  28
SOUTH HAVEN    LGT RAIN  41  37  86 E12G21    29.98F
$$
MIZ016>042-300900-
NORTHERN LOWER MICHIGAN

CITY           SKY/WX    TMP DP  RH WIND       PRES   REMARKS
ALPENA         CLOUDY    34  27  75 E9        30.25S WCI  27
BEAVER ISLAND  MOCLDY    34  26  74 E9        30.21S WCI  26
BELLAIRE       CLOUDY    37  22  56 E5        30.18F WCI  33
CADILLAC       CLOUDY    34  22  60 E15       30.10F WCI  24
CHARLEVOIX     CLOUDY    35  25  66 E12       30.22S WCI  27
FRANKFORT      CLOUDY    37  24  60 E6        30.12F WCI  32
GAYLORD        CLOUDY    34  22  61 VRB5      30.17F WCI  30
GRAYLING       FLURRIES  32  25  74 E10       30.18F WCI  24
HARBOR SPRINGS CLOUDY    34  24  69 E13G18    30.21F WCI  25
HOUGHTON LAKE  CLOUDY    33  27  78 E10       30.15F WCI  25
MANISTEE       LGT RAIN  37  22  54 E13       30.10  WCI  29
OSCODA         CLOUDY    36  29  77 NE10      30.21F WCI  28
PELLSTON       CLOUDY    34  22  61 E9        30.23  WCI  27
ROGERS CITY    CLOUDY    34  27  75 E9        30.26F WCI  27
TRAVERSE CITY  CLOUDY    36  27  69 SE8G20    30.15F WCI  30
$$
MIZ007>008-015-300900-
EASTERN UPPER MICHIGAN

CITY           SKY/WX    TMP DP  RH WIND       PRES   REMARKS
KINROSS        CLOUDY    32  25  75 SE12      30.24S WCI  23
MACKINAC ISLAN CLOUDY    33  27  80 E10G17    30.23S WCI  25
NEWBERRY       CLOUDY    30  24  77 CALM      30.22S
S. S. MARIE    CLOUDY    35  23  61 E7        30.23F WCI  29
MUNISING         N/A     35  22  58 S5        30.20S WCI  31
$$
MIZ004>006-011>014-085-300900-
CENTRAL UPPER MICHIGAN

CITY           SKY/WX    TMP DP  RH WIND       PRES   REMARKS
MANISTIQUE     CLOUDY    33  28  80 E9G17     30.20F WCI  26
ESCANABA       CLOUDY    36  25  64 E13       30.17F WCI  27
MENOMINEE      LGT RAIN  36  32  85 E8        30.13F WCI  30
SAWYER-GWINN   CLOUDY    32  24  71 SE6       30.18R WCI  26
$$
MIZ001>003-009>011-084-300900-
WESTERN UPPER MICHIGAN

CITY           SKY/WX    TMP DP  RH WIND       PRES   REMARKS
IRON MOUNTAIN  CLOUDY    34  23  64 NE3       30.12F
HOUGHTON       CLOUDY    31  27  85 E9        30.15F WCI  23
COPPER HARBOR    N/A     34  29  82 S5        30.18F WCI  30
IRONWOOD       CLOUDY    36  27  69 NE3       30.10F
$$

ABBREVIATIONS USED IN REMARKS
   TC - TEMPERATURE IN CELSIUS
  WCI - WIND CHILL INDEX
   HX - HEAT INDEX
  VSB - VISIBILITY





USA.gov is the U.S. government's official web portal to all federal, state and local government web resources and services.